Showing default

KUIPER-00093, 64838

Orbit data source: Space-Track

KUIPER-00093, 64838 is a payload satellite owned by Kuiper Systems (US) in LEO that was launched on Wed, 16 Jul 2025 UTC via an FALCON 9 launch vehicle from the Air Force Eastern Test Range (AFETR). Payload-class satellites include a variety of spacecraft equipped with specific instruments for various scientific and technological missions. These include communications satellites like Starlink; space stations such as the ISS; scientific satellites like the Hubble; Earth observation satellites from companies like Planet Labs, Umbra, and HawkEye 360; GPS; miniature CubeSats for education and research; and military/defense satellites.

Loading next visibility...
Identifier
64838, 2025-151Y
Orbit
LEO
Country
Flag of USUS
Related business
Manufacturer
Kuiper Systems
Mission
Operational Commercial Communications
Bus & Motor
KUIPER, Unknown motor
Mass
~490 kg wet, ~490 kg dry
Launch date (UTC)
2025-07-16 (11 months ago)
Launch vehicle
FALCON 9
Launch site
Air Force Eastern Test Range (AFETR)
Object type
Payload
Rocket body
Debris
Shape & HBR
Box + 2 Pan, 3.4 m
Radar Cross Section
2.326 m², Large (>1 m²)

Expand to show TLE details & history
Last TLE update: 9 hours ago

TLE from 9 hours ago
0 KUIPER-00093
1 64838U 25151Y   26166.85524560  .00001135  00000-0  17787-3 0  9992
2 64838  51.8993 218.9906 0000437 106.4025 253.6985 14.79933653 49947
Epoch: 2026-06-15T20:31Z
TLE epoch observation values (Epoch: 2026-06-15T20:31:33.219Z)
Latitude
-0.00007°
Longitude
6.96649°
Altitude
630.366 km
Speed
7.544 km/s
True Right ascension
14h 35m 57s
True Declination
0° 00' 00"
Sunlit
Object was in full shadow at epoch
Visualization orbit readout
Latitude
Unknown
Longitude
Unknown
Altitude
Unknown
Speed
Unknown
Apparent Right ascension
Unknown
Apparent Declination
Unknown
Sunlit
N/A
Visualization observer readout
Local Sidereal Time
15:50:29
Azimuth
Unknown
Elevation
Unknown
Doppler factor
Unknown
Orbital elements
Apogee altitude
630.291 km
Perigee altitude
629.679 km
Semi-major axis
7,008.122 km
Eccentricity
0.00004
Inclination
51.8993°
RAAN
218.9906°
Arg. of periapsis
106.4025°
True anomaly
253.69369°
Mean anomaly
253.6985°
Eccentric anomaly
253.6961°
Mean motion
3.69948 °/min
Orbital period
97.31 mins
BSTAR
0.00017787
Loading maneuver chart data...
Computing Atmospheric mass density...
Loading historical data...
Loading historical data...
Loading historical data...
Loading historical data...
Loading historical data...
Loading historical data...
Loading historical data...

Documentation

Showing up to 5 results
|